Time,TemperatureF,DewpointF,PressureIn,WindDirection,WindDirectionDegrees,WindSpeedMPH,WindSpeedGustMPH,Humidity,HourlyPrecipIn,Conditions,Clouds,dailyrainin,SoftwareType,DateUTC
2013-03-08 00:00:00,27.9,27.1,-100.00,NE,46,5.0,18.0,97,0.00,,,0.12,meteohub,2013-03-08 05:00:00,
2013-03-08 00:02:00,28.4,27.7,-100.00,NNE,29,11.0,19.0,97,0.00,,,0.12,meteohub,2013-03-08 05:02:00,
2013-03-08 00:04:00,28.4,27.7,-100.00,NNE,32,6.0,19.0,97,0.00,,,0.12,meteohub,2013-03-08 05:04:00,
2013-03-08 00:09:00,28.4,27.7,-100.00,NNE,32,6.0,19.0,97,0.00,,,0.00,meteohub,2013-03-08 05:09:00,
2013-03-08 00:14:00,28.0,27.3,-100.00,ESE,113,8.0,19.0,97,0.00,,,0.00,meteohub,2013-03-08 05:14:00,
2013-03-08 00:19:00,28.4,27.7,-100.00,ESE,116,4.0,16.0,97,0.00,,,0.00,meteohub,2013-03-08 05:19:00,
2013-03-08 00:24:00,28.4,27.7,-100.00,NNE,18,8.0,17.0,97,0.00,,,0.00,meteohub,2013-03-08 05:24:00,
2013-03-08 00:29:00,27.9,27.1,-100.00,NNE,32,5.0,17.0,97,0.00,,,0.00,meteohub,2013-03-08 05:29:00,
2013-03-08 00:34:00,27.7,27.0,-100.00,ESE,102,7.0,17.0,97,0.00,,,0.00,meteohub,2013-03-08 05:34:00,
2013-03-08 00:39:00,28.0,27.3,-100.00,NE,52,10.0,16.0,97,0.00,,,0.00,meteohub,2013-03-08 05:39:00,
2013-03-08 00:44:00,28.4,27.7,-100.00,NE,50,9.0,16.0,97,0.00,,,0.00,meteohub,2013-03-08 05:44:00,
2013-03-08 00:49:00,28.4,27.7,-100.00,NE,40,3.0,16.0,97,0.00,,,0.00,meteohub,2013-03-08 05:49:00,
2013-03-08 00:54:00,28.9,28.2,-100.00,NE,50,6.0,18.0,97,0.00,,,0.00,meteohub,2013-03-08 05:54:00,
2013-03-08 00:59:00,28.4,27.7,-100.00,ESE,105,10.0,18.0,97,0.00,,,0.00,meteohub,2013-03-08 05:59:00,
2013-03-08 01:04:00,28.9,28.2,-100.00,NNE,30,10.0,18.0,97,0.00,,,0.00,meteohub,2013-03-08 06:04:00,
2013-03-08 01:09:00,28.0,27.3,-100.00,NNE,21,10.0,19.0,97,0.00,,,0.00,meteohub,2013-03-08 06:09:00,
2013-03-08 01:15:00,28.9,28.2,-100.00,ENE,57,6.0,19.0,97,0.00,,,0.00,meteohub,2013-03-08 06:15:00,
2013-03-08 01:20:00,28.4,27.7,-100.00,NE,43,9.0,19.0,97,0.00,,,0.00,meteohub,2013-03-08 06:20:00,
2013-03-08 01:25:00,28.0,27.3,-100.00,NE,53,11.0,16.0,97,0.00,,,0.00,meteohub,2013-03-08 06:25:00,
2013-03-08 01:30:00,28.0,27.3,-100.00,NE,42,8.0,17.0,97,0.00,,,0.00,meteohub,2013-03-08 06:30:00,
2013-03-08 01:35:00,28.6,27.9,-100.00,NE,47,2.0,17.0,97,0.00,,,0.00,meteohub,2013-03-08 06:35:00,
2013-03-08 01:40:00,28.0,27.3,-100.00,NNW,336,5.0,17.0,97,0.00,,,0.00,meteohub,2013-03-08 06:40:00,
2013-03-08 01:45:00,28.4,27.7,-100.00,North,2,3.0,14.0,97,0.00,,,0.00,meteohub,2013-03-08 06:45:00,
2013-03-08 01:50:00,28.6,27.9,-100.00,NNE,28,7.0,18.0,97,0.00,,,0.00,meteohub,2013-03-08 06:50:00,
2013-03-08 01:55:00,28.8,28.0,-100.00,ENE,77,7.0,19.0,97,0.00,,,0.00,meteohub,2013-03-08 06:55:00,
2013-03-08 02:00:00,28.6,27.9,-100.00,NNE,32,6.0,20.0,97,0.00,,,0.00,meteohub,2013-03-08 07:00:00,
2013-03-08 02:05:00,28.6,27.9,-100.00,NE,53,5.0,20.0,97,0.00,,,0.00,meteohub,2013-03-08 07:05:00,
2013-03-08 02:10:00,28.6,27.9,-100.00,NE,46,9.0,20.0,97,0.00,,,0.00,meteohub,2013-03-08 07:10:00,
2013-03-08 02:15:00,28.4,27.7,-100.00,East,80,6.0,17.0,97,0.00,,,0.00,meteohub,2013-03-08 07:15:00,
2013-03-08 02:20:00,28.0,27.3,-100.00,NNE,14,4.0,16.0,97,0.00,,,0.00,meteohub,2013-03-08 07:20:00,
2013-03-08 02:25:00,28.0,27.3,-100.00,NNE,12,9.0,17.0,97,0.00,,,0.00,meteohub,2013-03-08 07:25:00,
2013-03-08 02:31:00,27.7,27.0,-100.00,NE,50,9.0,22.0,97,0.00,,,0.00,meteohub,2013-03-08 07:31:00,
2013-03-08 02:36:00,28.6,27.9,-100.00,NNE,19,2.0,22.0,97,0.00,,,0.00,meteohub,2013-03-08 07:36:00,
2013-03-08 02:41:00,28.0,27.3,-100.00,North,1,6.0,22.0,97,0.00,,,0.00,meteohub,2013-03-08 07:41:00,
2013-03-08 02:46:00,28.0,27.3,-100.00,East,99,7.0,19.0,97,0.00,,,0.00,meteohub,2013-03-08 07:46:00,
2013-03-08 02:51:00,28.0,27.3,-100.00,NNE,18,8.0,19.0,97,0.00,,,0.00,meteohub,2013-03-08 07:51:00,
2013-03-08 02:56:00,27.9,27.1,-100.00,NE,45,7.0,19.0,97,0.00,,,0.00,meteohub,2013-03-08 07:56:00,
2013-03-08 03:01:00,27.9,27.1,-100.00,North,358,8.0,19.0,97,0.00,,,0.00,meteohub,2013-03-08 08:01:00,
2013-03-08 03:06:00,27.7,27.0,-100.00,East,92,6.0,19.0,97,0.00,,,0.00,meteohub,2013-03-08 08:06:00,
2013-03-08 03:11:00,27.0,26.2,-100.00,NE,35,7.0,14.0,97,0.00,,,0.00,meteohub,2013-03-08 08:11:00,
2013-03-08 03:16:00,27.7,27.0,-100.00,East,92,4.0,14.0,97,0.00,,,0.00,meteohub,2013-03-08 08:16:00,
2013-03-08 03:21:00,28.2,27.5,-100.00,East,97,5.0,14.0,97,0.00,,,0.00,meteohub,2013-03-08 08:21:00,
2013-03-08 03:26:00,27.3,26.6,-100.00,NE,50,10.0,13.0,97,0.00,,,0.00,meteohub,2013-03-08 08:26:00,
2013-03-08 03:31:00,27.7,27.0,-100.00,NNE,25,6.0,21.0,97,0.00,,,0.00,meteohub,2013-03-08 08:31:00,
2013-03-08 03:37:00,27.7,27.0,-100.00,ENE,57,4.0,21.0,97,0.00,,,0.00,meteohub,2013-03-08 08:37:00,
2013-03-08 03:42:00,27.7,27.0,-100.00,NNE,26,9.0,21.0,97,0.00,,,0.00,meteohub,2013-03-08 08:42:00,
2013-03-08 03:47:00,27.3,26.6,-100.00,North,11,5.0,19.0,97,0.00,,,0.00,meteohub,2013-03-08 08:47:00,
2013-03-08 03:52:00,28.2,27.5,-100.00,ENE,57,6.0,19.0,97,0.00,,,0.00,meteohub,2013-03-08 08:52:00,
2013-03-08 03:57:00,28.4,27.7,-100.00,North,9,9.0,16.0,97,0.00,,,0.00,meteohub,2013-03-08 08:57:00,
2013-03-08 04:02:00,27.9,27.1,-100.00,NNE,28,8.0,16.0,97,0.00,,,0.00,meteohub,2013-03-08 09:02:00,
2013-03-08 04:07:00,27.9,27.1,-100.00,SE,126,4.0,16.0,97,0.00,,,0.00,meteohub,2013-03-08 09:07:00,
2013-03-08 04:12:00,28.2,27.5,-100.00,ENE,59,2.0,16.0,97,0.00,,,0.00,meteohub,2013-03-08 09:12:00,
2013-03-08 04:17:00,28.2,27.7,-100.00,ENE,63,4.0,20.0,98,0.00,,,0.00,meteohub,2013-03-08 09:17:00,
2013-03-08 04:22:00,29.5,28.9,-100.00,NNE,26,5.0,20.0,98,0.00,,,0.00,meteohub,2013-03-08 09:22:00,
2013-03-08 04:27:00,28.8,28.2,-100.00,NE,42,7.0,20.0,98,0.00,,,0.00,meteohub,2013-03-08 09:27:00,
2013-03-08 04:32:00,27.7,27.1,-100.00,NNE,29,7.0,19.0,98,0.00,,,0.00,meteohub,2013-03-08 09:32:00,
2013-03-08 04:37:00,29.5,28.9,-100.00,NNE,14,12.0,19.0,98,0.00,,,0.00,meteohub,2013-03-08 09:37:00,
2013-03-08 04:42:00,28.2,27.7,-100.00,NNE,16,12.0,17.0,98,0.00,,,0.00,meteohub,2013-03-08 09:42:00,
2013-03-08 04:47:00,28.2,27.7,-100.00,NNE,29,7.0,20.0,98,0.00,,,0.00,meteohub,2013-03-08 09:47:00,
2013-03-08 04:53:00,28.6,28.0,-100.00,ENE,64,5.0,20.0,98,0.00,,,0.00,meteohub,2013-03-08 09:53:00,
2013-03-08 04:58:00,28.0,27.5,-100.00,NNE,29,9.0,20.0,98,0.00,,,0.00,meteohub,2013-03-08 09:58:00,
2013-03-08 05:03:00,28.0,27.5,-100.00,NNE,22,9.0,21.0,98,0.00,,,0.00,meteohub,2013-03-08 10:03:00,
2013-03-08 05:08:00,28.0,27.5,-100.00,ENE,61,5.0,21.0,98,0.00,,,0.00,meteohub,2013-03-08 10:08:00,
2013-03-08 05:13:00,27.9,27.3,-100.00,ESE,116,11.0,21.0,98,0.00,,,0.00,meteohub,2013-03-08 10:13:00,
2013-03-08 05:18:00,28.0,27.5,-100.00,East,91,3.0,20.0,98,0.00,,,0.00,meteohub,2013-03-08 10:18:00,
2013-03-08 05:23:00,28.6,28.0,-100.00,NNE,23,7.0,20.0,98,0.00,,,0.00,meteohub,2013-03-08 10:23:00,
2013-03-08 05:28:00,28.6,28.0,-100.00,ENE,67,8.0,20.0,98,0.00,,,0.00,meteohub,2013-03-08 10:28:00,
2013-03-08 05:33:00,28.6,28.0,-100.00,ENE,60,6.0,17.0,98,0.00,,,0.00,meteohub,2013-03-08 10:33:00,
2013-03-08 05:38:00,28.6,28.0,-100.00,NNW,348,3.0,17.0,98,0.00,,,0.00,meteohub,2013-03-08 10:38:00,
2013-03-08 05:43:00,28.6,28.0,-100.00,NNE,30,11.0,17.0,98,0.00,,,0.00,meteohub,2013-03-08 10:43:00,
2013-03-08 05:48:00,28.4,27.9,-100.00,NNE,21,9.0,16.0,98,0.00,,,0.00,meteohub,2013-03-08 10:48:00,
2013-03-08 05:53:00,27.9,27.3,-100.00,NNE,14,6.0,16.0,98,0.00,,,0.00,meteohub,2013-03-08 10:53:00,
2013-03-08 05:58:00,28.4,27.7,-100.00,NNW,347,14.0,20.0,97,0.00,,,0.00,meteohub,2013-03-08 10:58:00,
2013-03-08 06:04:00,28.6,27.9,-100.00,North,1,11.0,20.0,97,0.00,,,0.00,meteohub,2013-03-08 11:04:00,
2013-03-08 06:09:00,28.0,27.3,-100.00,NE,54,5.0,20.0,97,0.00,,,0.00,meteohub,2013-03-08 11:09:00,
2013-03-08 06:14:00,28.6,27.9,-100.00,NE,35,9.0,20.0,97,0.00,,,0.00,meteohub,2013-03-08 11:14:00,
2013-03-08 06:19:00,28.9,28.2,-100.00,NNE,33,9.0,20.0,97,0.00,,,0.00,meteohub,2013-03-08 11:19:00,
2013-03-08 06:24:00,28.4,27.7,-100.00,NNE,33,10.0,19.0,97,0.00,,,0.00,meteohub,2013-03-08 11:24:00,
2013-03-08 06:29:00,29.5,28.8,-100.00,ENE,74,6.0,17.0,97,0.00,,,0.00,meteohub,2013-03-08 11:29:00,
2013-03-08 06:34:00,28.0,27.3,-100.00,North,5,6.0,17.0,97,0.00,,,0.00,meteohub,2013-03-08 11:34:00,
2013-03-08 06:39:00,28.0,27.3,-100.00,NNE,32,6.0,17.0,97,0.00,,,0.00,meteohub,2013-03-08 11:39:00,
2013-03-08 06:44:00,28.0,27.3,-100.00,North,8,10.0,15.0,97,0.00,,,0.00,meteohub,2013-03-08 11:44:00,
2013-03-08 06:49:00,29.5,28.8,-100.00,NNE,22,6.0,18.0,97,0.00,,,0.00,meteohub,2013-03-08 11:49:00,
2013-03-08 06:54:00,27.7,27.0,-100.00,NNE,19,16.0,22.0,97,0.00,,,0.00,meteohub,2013-03-08 11:54:00,
2013-03-08 06:59:00,28.2,27.5,-100.00,NE,47,5.0,22.0,97,0.00,,,0.00,meteohub,2013-03-08 11:59:00,
2013-03-08 07:04:00,28.0,27.3,-100.00,ESE,113,6.0,22.0,97,0.00,,,0.00,meteohub,2013-03-08 12:04:00,
2013-03-08 07:09:00,28.2,27.5,-100.00,NE,54,11.0,21.0,97,0.00,,,0.00,meteohub,2013-03-08 12:09:00,
2013-03-08 07:15:00,29.5,28.8,-100.00,ENE,70,7.0,20.0,97,0.00,,,0.00,meteohub,2013-03-08 12:15:00,
2013-03-08 07:20:00,27.1,26.4,-100.00,NNE,14,15.0,20.0,97,0.00,,,0.00,meteohub,2013-03-08 12:20:00,
2013-03-08 07:25:00,28.6,27.9,-100.00,NE,43,11.0,19.0,97,0.00,,,0.00,meteohub,2013-03-08 12:25:00,
2013-03-08 07:30:00,28.8,28.2,-100.00,NNE,19,7.0,20.0,98,0.00,,,0.00,meteohub,2013-03-08 12:30:00,
2013-03-08 07:35:00,27.7,27.1,-100.00,North,11,14.0,20.0,98,0.00,,,0.00,meteohub,2013-03-08 12:35:00,
2013-03-08 07:40:00,28.9,28.4,-100.00,East,85,14.0,20.0,98,0.00,,,0.00,meteohub,2013-03-08 12:40:00,
2013-03-08 07:45:00,28.4,27.9,-100.00,North,2,21.0,21.0,98,0.00,,,0.00,meteohub,2013-03-08 12:45:00,
2013-03-08 07:50:00,27.9,27.3,-100.00,North,355,10.0,25.0,98,0.00,,,0.00,meteohub,2013-03-08 12:50:00,
2013-03-08 07:55:00,28.2,27.7,-100.00,NNE,21,7.0,25.0,98,0.00,,,0.00,meteohub,2013-03-08 12:55:00,
2013-03-08 08:00:00,29.5,28.9,-100.00,ENE,64,7.0,25.0,98,0.00,,,0.00,meteohub,2013-03-08 13:00:00,
2013-03-08 08:05:00,28.9,28.4,-100.00,ENE,67,10.0,23.0,98,0.00,,,0.00,meteohub,2013-03-08 13:05:00,
2013-03-08 08:10:00,28.0,27.5,-100.00,North,7,10.0,23.0,98,0.00,,,0.00,meteohub,2013-03-08 13:10:00,
2013-03-08 08:15:00,29.7,29.1,-100.00,NNE,29,18.0,21.0,98,0.00,,,0.00,meteohub,2013-03-08 13:15:00,
2013-03-08 08:20:00,27.7,27.1,-100.00,North,358,4.0,21.0,98,0.00,,,0.00,meteohub,2013-03-08 13:20:00,
2013-03-08 08:26:00,29.1,28.6,-100.00,ENE,78,9.0,19.0,98,0.00,,,0.00,meteohub,2013-03-08 13:26:00,
2013-03-08 08:31:00,28.6,28.0,-100.00,NE,47,10.0,19.0,98,0.00,,,0.00,meteohub,2013-03-08 13:31:00,
2013-03-08 08:36:00,28.6,28.0,-100.00,ENE,63,3.0,18.0,98,0.00,,,0.00,meteohub,2013-03-08 13:36:00,
2013-03-08 08:41:00,28.9,28.4,-100.00,NNE,32,11.0,19.0,98,0.00,,,0.00,meteohub,2013-03-08 13:41:00,
2013-03-08 08:46:00,28.0,27.5,-100.00,ENE,71,6.0,19.0,98,0.00,,,0.00,meteohub,2013-03-08 13:46:00,
2013-03-08 08:51:00,27.9,27.3,-100.00,ENE,70,5.0,20.0,98,0.00,,,0.00,meteohub,2013-03-08 13:51:00,
2013-03-08 08:56:00,30.7,30.2,-100.00,NE,45,11.0,20.0,98,0.00,,,0.00,meteohub,2013-03-08 13:56:00,
2013-03-08 09:01:00,28.6,28.0,-100.00,NNE,25,11.0,20.0,98,0.00,,,0.00,meteohub,2013-03-08 14:01:00,
2013-03-08 09:06:00,29.1,28.6,-100.00,NNE,22,6.0,22.0,98,0.00,,,0.00,meteohub,2013-03-08 14:06:00,
2013-03-08 09:11:00,28.4,27.9,-100.00,ENE,64,7.0,22.0,98,0.00,,,0.00,meteohub,2013-03-08 14:11:00,
2013-03-08 09:16:00,27.9,27.3,-100.00,NE,53,4.0,22.0,98,0.00,,,0.00,meteohub,2013-03-08 14:16:00,
2013-03-08 09:21:00,28.0,27.5,-100.00,NE,56,11.0,25.0,98,0.00,,,0.00,meteohub,2013-03-08 14:21:00,
2013-03-08 09:27:00,29.1,28.6,-100.00,NNE,28,10.0,25.0,98,0.00,,,0.00,meteohub,2013-03-08 14:27:00,
2013-03-08 09:32:00,29.1,28.6,-100.00,ENE,61,9.0,25.0,98,0.00,,,0.00,meteohub,2013-03-08 14:32:00,
2013-03-08 09:37:00,29.1,28.6,-100.00,NW,316,7.0,21.0,98,0.00,,,0.00,meteohub,2013-03-08 14:37:00,
2013-03-08 09:42:00,29.1,28.6,-100.00,SE,125,6.0,17.0,98,0.00,,,0.00,meteohub,2013-03-08 14:42:00,
2013-03-08 09:47:00,29.5,28.9,-100.00,East,82,6.0,20.0,98,0.00,,,0.00,meteohub,2013-03-08 14:47:00,
2013-03-08 09:52:00,29.8,29.3,-100.00,North,358,9.0,21.0,98,0.00,,,0.00,meteohub,2013-03-08 14:52:00,
2013-03-08 09:57:00,28.6,28.0,-100.00,NNW,345,6.0,21.0,98,0.00,,,0.00,meteohub,2013-03-08 14:57:00,
2013-03-08 10:02:00,29.7,29.1,-100.00,East,101,6.0,21.0,98,0.00,,,0.00,meteohub,2013-03-08 15:02:00,
2013-03-08 10:07:00,29.7,29.1,-100.00,NE,43,12.0,18.0,98,0.00,,,0.00,meteohub,2013-03-08 15:07:00,
2013-03-08 10:12:00,28.9,28.4,-100.00,North,351,9.0,18.0,98,0.00,,,0.00,meteohub,2013-03-08 15:12:00,
2013-03-08 10:17:00,28.6,28.0,-100.00,ENE,70,3.0,22.0,98,0.00,,,0.00,meteohub,2013-03-08 15:17:00,
2013-03-08 10:22:00,29.1,28.6,-100.00,NNE,12,7.0,22.0,98,0.00,,,0.00,meteohub,2013-03-08 15:22:00,
2013-03-08 10:27:00,29.1,28.6,-100.00,NE,45,14.0,26.0,98,0.00,,,0.00,meteohub,2013-03-08 15:27:00,
2013-03-08 10:32:00,29.1,28.6,-100.00,NNE,32,9.0,26.0,98,0.00,,,0.00,meteohub,2013-03-08 15:32:00,
2013-03-08 10:37:00,29.5,28.9,-100.00,NE,37,6.0,26.0,98,0.00,,,0.00,meteohub,2013-03-08 15:37:00,
2013-03-08 10:42:00,30.2,29.7,-100.00,East,87,6.0,20.0,98,0.00,,,0.00,meteohub,2013-03-08 15:42:00,
2013-03-08 10:47:00,30.4,29.8,-100.00,NNE,18,11.0,25.0,98,0.00,,,0.00,meteohub,2013-03-08 15:47:00,
2013-03-08 10:52:00,29.5,28.8,-100.00,ESE,105,4.0,25.0,97,0.00,,,0.00,meteohub,2013-03-08 15:52:00,
2013-03-08 10:57:00,30.4,29.7,-100.00,NE,45,5.0,25.0,97,0.00,,,0.00,meteohub,2013-03-08 15:57:00,
2013-03-08 11:02:00,29.5,28.8,-100.00,NE,54,5.0,21.0,97,0.00,,,0.00,meteohub,2013-03-08 16:02:00,
2013-03-08 11:07:00,29.1,28.4,-100.00,North,11,21.0,24.0,97,0.00,,,0.00,meteohub,2013-03-08 16:07:00,
2013-03-08 11:12:00,29.3,28.6,-100.00,ESE,112,5.0,24.0,97,0.00,,,0.00,meteohub,2013-03-08 16:12:00,
2013-03-08 11:17:00,28.9,28.2,-100.00,NE,50,14.0,24.0,97,0.00,,,0.00,meteohub,2013-03-08 16:17:00,
2013-03-08 11:22:00,29.5,28.8,-100.00,North,358,14.0,21.0,97,0.00,,,0.00,meteohub,2013-03-08 16:22:00,
2013-03-08 11:27:00,29.7,28.9,-100.00,NNE,29,8.0,22.0,97,0.00,,,0.00,meteohub,2013-03-08 16:27:00,
2013-03-08 11:32:00,29.5,28.8,-100.00,NE,39,4.0,22.0,97,0.00,,,0.00,meteohub,2013-03-08 16:32:00,
2013-03-08 11:37:00,29.1,28.4,-100.00,SE,139,5.0,22.0,97,0.00,,,0.00,meteohub,2013-03-08 16:37:00,
2013-03-08 11:43:00,30.6,29.8,-100.00,North,11,5.0,21.0,97,0.00,,,0.00,meteohub,2013-03-08 16:43:00,
2013-03-08 11:48:00,30.6,29.8,-100.00,NNE,14,10.0,17.0,97,0.00,,,0.00,meteohub,2013-03-08 16:48:00,
2013-03-08 11:53:00,29.5,28.8,-100.00,NNE,25,4.0,17.0,97,0.00,,,0.00,meteohub,2013-03-08 16:53:00,
2013-03-08 11:58:00,29.1,28.4,-100.00,NNE,16,8.0,15.0,97,0.00,,,0.00,meteohub,2013-03-08 16:58:00,
2013-03-08 12:03:00,30.6,29.8,-100.00,ENE,61,6.0,19.0,97,0.00,,,0.00,meteohub,2013-03-08 17:03:00,
2013-03-08 12:08:00,29.8,29.1,-100.00,NE,47,9.0,19.0,97,0.00,,,0.00,meteohub,2013-03-08 17:08:00,
2013-03-08 12:13:00,30.9,30.2,-100.00,East,85,9.0,22.0,97,0.00,,,0.00,meteohub,2013-03-08 17:13:00,
2013-03-08 12:18:00,29.7,28.9,-100.00,ENE,63,9.0,22.0,97,0.00,,,0.00,meteohub,2013-03-08 17:18:00,
2013-03-08 12:23:00,30.2,29.5,-100.00,NNE,12,10.0,22.0,97,0.00,,,0.00,meteohub,2013-03-08 17:23:00,
2013-03-08 12:28:00,30.2,29.5,-100.00,NE,36,9.0,17.0,97,0.00,,,0.00,meteohub,2013-03-08 17:28:00,
2013-03-08 12:33:00,30.7,30.0,-100.00,NE,39,8.0,17.0,97,0.00,,,0.00,meteohub,2013-03-08 17:33:00,
2013-03-08 12:38:00,30.2,29.5,-100.00,NE,54,5.0,17.0,97,0.00,,,0.00,meteohub,2013-03-08 17:38:00,
2013-03-08 12:43:00,30.7,30.0,-100.00,ENE,75,5.0,16.0,97,0.00,,,0.00,meteohub,2013-03-08 17:43:00,
2013-03-08 12:49:00,31.5,30.7,-100.00,NE,46,5.0,17.0,97,0.00,,,0.00,meteohub,2013-03-08 17:49:00,
2013-03-08 12:54:00,30.6,29.8,-100.00,NE,45,6.0,17.0,97,0.00,,,0.00,meteohub,2013-03-08 17:54:00,
2013-03-08 12:59:00,30.9,30.2,-100.00,ESE,105,9.0,17.0,97,0.00,,,0.00,meteohub,2013-03-08 17:59:00,
2013-03-08 13:04:00,30.4,29.7,-100.00,North,9,6.0,15.0,97,0.00,,,0.00,meteohub,2013-03-08 18:04:00,
2013-03-08 13:09:00,32.4,31.6,-100.00,East,85,5.0,15.0,97,0.00,,,0.00,meteohub,2013-03-08 18:09:00,
2013-03-08 13:14:00,30.4,29.7,-100.00,ENE,67,2.0,20.0,97,0.00,,,0.00,meteohub,2013-03-08 18:14:00,
2013-03-08 13:19:00,32.0,31.3,-100.00,NE,54,10.0,20.0,97,0.00,,,0.00,meteohub,2013-03-08 18:19:00,
2013-03-08 13:24:00,31.3,30.6,-100.00,NNE,12,8.0,20.0,97,0.00,,,0.00,meteohub,2013-03-08 18:24:00,
2013-03-08 13:29:00,32.0,31.3,-100.00,NE,40,7.0,14.0,97,0.00,,,0.00,meteohub,2013-03-08 18:29:00,
2013-03-08 13:34:00,32.2,31.5,-100.00,North,358,0.0,13.0,97,0.00,,,0.00,meteohub,2013-03-08 18:34:00,
2013-03-08 13:39:00,32.2,31.5,-100.00,NE,54,10.0,14.0,97,0.00,,,0.00,meteohub,2013-03-08 18:39:00,
2013-03-08 13:44:00,34.0,33.3,-100.00,NNE,14,1.0,18.0,97,0.00,,,0.00,meteohub,2013-03-08 18:44:00,
2013-03-08 13:49:00,31.6,30.9,-100.00,North,358,5.0,18.0,97,0.00,,,0.00,meteohub,2013-03-08 18:49:00,
2013-03-08 13:54:00,32.5,31.8,-100.00,ENE,59,7.0,18.0,97,0.00,,,0.00,meteohub,2013-03-08 18:54:00,
2013-03-08 14:00:00,33.1,32.4,-100.00,NE,39,1.0,18.0,97,0.00,,,0.00,meteohub,2013-03-08 19:00:00,
2013-03-08 14:05:00,32.2,31.1,-100.00,South,171,3.0,18.0,96,0.00,,,0.00,meteohub,2013-03-08 19:05:00,
2013-03-08 14:10:00,32.0,30.9,-100.00,ESE,106,7.0,15.0,96,0.00,,,0.00,meteohub,2013-03-08 19:10:00,
2013-03-08 14:15:00,32.7,31.5,-100.00,ESE,119,7.0,17.0,95,0.00,,,0.00,meteohub,2013-03-08 19:15:00,
2013-03-08 14:20:00,33.3,31.5,-100.00,ESE,118,10.0,20.0,93,0.00,,,0.00,meteohub,2013-03-08 19:20:00,
2013-03-08 14:25:00,34.3,32.0,-100.00,ESE,112,4.0,20.0,91,0.00,,,0.00,meteohub,2013-03-08 19:25:00,
2013-03-08 14:30:00,33.1,30.2,-100.00,ENE,71,4.0,20.0,89,0.00,,,0.00,meteohub,2013-03-08 19:30:00,
2013-03-08 14:35:00,34.5,31.1,-100.00,ENE,60,3.0,17.0,87,0.00,,,0.00,meteohub,2013-03-08 19:35:00,
2013-03-08 14:40:00,34.7,30.9,-100.00,ESE,108,5.0,16.0,86,0.00,,,0.00,meteohub,2013-03-08 19:40:00,
2013-03-08 14:45:00,34.5,30.2,-100.00,ENE,77,5.0,12.0,84,0.00,,,0.00,meteohub,2013-03-08 19:45:00,
2013-03-08 14:50:00,35.4,30.6,-100.00,East,94,3.0,11.0,82,0.00,,,0.00,meteohub,2013-03-08 19:50:00,
2013-03-08 14:55:00,35.4,30.2,-100.00,NE,52,4.0,12.0,81,0.00,,,0.00,meteohub,2013-03-08 19:55:00,
2013-03-08 15:01:00,36.7,30.7,-100.00,NE,36,7.0,15.0,79,0.00,,,0.00,meteohub,2013-03-08 20:01:00,
2013-03-08 15:06:00,36.0,29.5,-100.00,ESE,106,6.0,15.0,77,0.00,,,0.00,meteohub,2013-03-08 20:06:00,
2013-03-08 15:11:00,36.0,29.8,-100.00,North,358,8.0,15.0,78,0.00,,,0.00,meteohub,2013-03-08 20:11:00,
2013-03-08 15:16:00,36.9,30.4,-100.00,ENE,66,2.0,13.0,77,0.00,,,0.00,meteohub,2013-03-08 20:16:00,
2013-03-08 15:21:00,36.3,30.2,-100.00,ENE,68,1.0,13.0,78,0.00,,,0.00,meteohub,2013-03-08 20:21:00,
2013-03-08 15:26:00,37.0,30.2,-100.00,NE,49,7.0,16.0,76,0.00,,,0.00,meteohub,2013-03-08 20:26:00,
2013-03-08 15:31:00,37.0,29.8,-100.00,ENE,67,5.0,16.0,75,0.00,,,0.00,meteohub,2013-03-08 20:31:00,
2013-03-08 15:36:00,37.4,30.2,-100.00,NE,46,3.0,16.0,75,0.00,,,0.00,meteohub,2013-03-08 20:36:00,
2013-03-08 15:41:00,36.9,30.0,-100.00,NNE,12,4.0,15.0,76,0.00,,,0.00,meteohub,2013-03-08 20:41:00,
2013-03-08 15:46:00,37.6,30.4,-100.00,East,85,6.0,13.0,75,0.00,,,0.00,meteohub,2013-03-08 20:46:00,
2013-03-08 15:51:00,35.6,28.4,-100.00,SE,129,4.0,13.0,75,0.00,,,0.00,meteohub,2013-03-08 20:51:00,
2013-03-08 15:56:00,36.7,29.5,-100.00,North,9,3.0,13.0,75,0.00,,,0.00,meteohub,2013-03-08 20:56:00,
2013-03-08 16:01:00,36.1,28.9,-100.00,NNE,29,7.0,13.0,75,0.00,,,0.00,meteohub,2013-03-08 21:01:00,
2013-03-08 16:06:00,37.0,29.5,-100.00,East,90,5.0,13.0,74,0.00,,,0.00,meteohub,2013-03-08 21:06:00,
2013-03-08 16:11:00,36.7,29.5,-100.00,NE,43,3.0,13.0,75,0.00,,,0.00,meteohub,2013-03-08 21:11:00,
2013-03-08 16:17:00,37.4,30.2,-100.00,NNE,16,8.0,13.0,75,0.00,,,0.00,meteohub,2013-03-08 21:17:00,
2013-03-08 16:22:00,36.7,29.8,-100.00,ESE,108,4.0,13.0,76,0.00,,,0.00,meteohub,2013-03-08 21:22:00,
2013-03-08 16:27:00,35.2,28.4,-100.00,East,85,0.0,10.0,76,0.00,,,0.00,meteohub,2013-03-08 21:27:00,
2013-03-08 16:32:00,36.1,29.7,-100.00,NNE,33,8.0,10.0,77,0.00,,,0.00,meteohub,2013-03-08 21:32:00,
2013-03-08 16:37:00,36.9,30.0,-100.00,East,84,4.0,11.0,76,0.00,,,0.00,meteohub,2013-03-08 21:37:00,
2013-03-08 16:42:00,36.3,29.5,-100.00,ENE,66,1.0,11.0,76,0.00,,,0.00,meteohub,2013-03-08 21:42:00,
2013-03-08 16:47:00,36.9,30.0,-100.00,North,11,3.0,14.0,76,0.00,,,0.00,meteohub,2013-03-08 21:47:00,
2013-03-08 16:52:00,38.5,31.8,-100.00,NE,42,4.0,14.0,77,0.00,,,0.00,meteohub,2013-03-08 21:52:00,
2013-03-08 16:57:00,36.9,30.4,-100.00,NNE,32,2.0,14.0,77,0.00,,,0.00,meteohub,2013-03-08 21:57:00,
2013-03-08 17:02:00,37.4,30.9,-100.00,NE,53,2.0,8.0,77,0.00,,,0.00,meteohub,2013-03-08 22:02:00,
2013-03-08 17:07:00,36.0,29.5,-100.00,ENE,64,1.0,9.0,77,0.00,,,0.00,meteohub,2013-03-08 22:07:00,
2013-03-08 17:13:00,37.6,31.1,-100.00,ENE,78,5.0,9.0,77,0.00,,,0.00,meteohub,2013-03-08 22:13:00,
2013-03-08 17:18:00,36.1,29.3,-100.00,NNE,16,3.0,9.0,76,0.00,,,0.00,meteohub,2013-03-08 22:18:00,
2013-03-08 17:23:00,36.7,30.2,-100.00,NE,43,4.0,9.0,77,0.00,,,0.00,meteohub,2013-03-08 22:23:00,
2013-03-08 17:28:00,36.3,30.4,-100.00,NNE,30,3.0,9.0,79,0.00,,,0.00,meteohub,2013-03-08 22:28:00,
2013-03-08 17:33:00,36.0,30.0,-100.00,NE,46,5.0,8.0,79,0.00,,,0.00,meteohub,2013-03-08 22:33:00,
2013-03-08 17:38:00,36.3,31.3,-100.00,ENE,78,0.0,8.0,82,0.00,,,0.00,meteohub,2013-03-08 22:38:00,
2013-03-08 17:43:00,36.1,31.1,-100.00,East,82,0.0,8.0,82,0.00,,,0.00,meteohub,2013-03-08 22:43:00,
2013-03-08 17:48:00,36.7,32.4,-100.00,ENE,59,2.0,8.0,84,0.00,,,0.00,meteohub,2013-03-08 22:48:00,
2013-03-08 17:53:00,37.4,33.3,-100.00,NNE,28,0.0,8.0,85,0.00,,,0.00,meteohub,2013-03-08 22:53:00,
2013-03-08 17:58:00,36.9,33.6,-100.00,NNE,28,0.0,8.0,88,0.00,,,0.00,meteohub,2013-03-08 22:58:00,
2013-03-08 18:04:00,36.7,33.3,-100.00,NE,37,2.0,5.0,87,0.00,,,0.00,meteohub,2013-03-08 23:04:00,
2013-03-08 18:09:00,37.4,34.2,-100.00,NNE,21,0.0,5.0,88,0.00,,,0.00,meteohub,2013-03-08 23:09:00,
2013-03-08 18:14:00,36.9,32.7,-100.00,NNE,30,2.0,5.0,85,0.00,,,0.00,meteohub,2013-03-08 23:14:00,
2013-03-08 18:19:00,36.0,30.7,-100.00,ENE,71,1.0,7.0,81,0.00,,,0.00,meteohub,2013-03-08 23:19:00,
2013-03-08 18:24:00,36.0,30.0,-100.00,East,97,0.0,7.0,79,0.00,,,0.00,meteohub,2013-03-08 23:24:00,
2013-03-08 18:29:00,35.4,29.5,-100.00,North,4,1.0,7.0,79,0.00,,,0.00,meteohub,2013-03-08 23:29:00,
2013-03-08 18:34:00,36.3,30.2,-100.00,ENE,78,4.0,6.0,78,0.00,,,0.00,meteohub,2013-03-08 23:34:00,
2013-03-08 18:39:00,35.8,29.3,-100.00,ENE,61,3.0,7.0,77,0.00,,,0.00,meteohub,2013-03-08 23:39:00,
2013-03-08 18:44:00,35.8,29.3,-100.00,NE,56,3.0,9.0,77,0.00,,,0.00,meteohub,2013-03-08 23:44:00,
2013-03-08 18:50:00,37.0,30.2,-100.00,NNE,30,4.0,9.0,76,0.00,,,0.00,meteohub,2013-03-08 23:50:00,
2013-03-08 18:55:00,36.9,30.0,-100.00,ENE,70,1.0,9.0,76,0.00,,,0.00,meteohub,2013-03-08 23:55:00,
2013-03-08 19:00:00,37.2,30.0,-100.00,NE,36,6.0,9.0,75,0.00,,,0.00,meteohub,2013-03-09 00:00:00,
2013-03-08 19:05:00,36.9,29.7,-100.00,North,358,4.0,9.0,75,0.00,,,0.00,meteohub,2013-03-09 00:05:00,
2013-03-08 19:10:00,36.9,29.7,-100.00,ENE,77,6.0,11.0,75,0.00,,,0.00,meteohub,2013-03-09 00:10:00,
2013-03-08 19:15:00,37.2,30.0,-100.00,ENE,61,4.0,11.0,75,0.00,,,0.00,meteohub,2013-03-09 00:15:00,
2013-03-08 19:20:00,36.3,29.1,-100.00,NNE,22,6.0,11.0,75,0.00,,,0.00,meteohub,2013-03-09 00:20:00,
2013-03-08 19:25:00,37.0,29.5,-100.00,NNE,14,4.0,11.0,74,0.00,,,0.00,meteohub,2013-03-09 00:25:00,
2013-03-08 19:30:00,36.7,28.8,-100.00,North,4,2.0,13.0,73,0.00,,,0.00,meteohub,2013-03-09 00:30:00,
2013-03-08 19:35:00,36.9,28.8,-100.00,NE,49,5.0,13.0,72,0.00,,,0.00,meteohub,2013-03-09 00:35:00,
2013-03-08 19:40:00,37.6,29.3,-100.00,ENE,78,3.0,13.0,72,0.00,,,0.00,meteohub,2013-03-09 00:40:00,
2013-03-08 19:45:00,36.7,28.2,-100.00,NNE,26,8.0,12.0,71,0.00,,,0.00,meteohub,2013-03-09 00:45:00,
2013-03-08 19:50:00,37.2,28.8,-100.00,NE,35,3.0,12.0,71,0.00,,,0.00,meteohub,2013-03-09 00:50:00,
2013-03-08 19:55:00,36.7,27.9,-100.00,North,358,3.0,12.0,70,0.00,,,0.00,meteohub,2013-03-09 00:55:00,
2013-03-08 20:01:00,36.0,26.8,-100.00,North,7,3.0,13.0,69,0.00,,,0.00,meteohub,2013-03-09 01:01:00,
2013-03-08 20:06:00,36.1,26.2,-100.00,NE,36,6.0,13.0,67,0.00,,,0.00,meteohub,2013-03-09 01:06:00,
2013-03-08 20:11:00,36.5,26.6,-100.00,ENE,74,5.0,13.0,67,0.00,,,0.00,meteohub,2013-03-09 01:11:00,
2013-03-08 20:16:00,35.8,25.5,-100.00,NNE,14,4.0,13.0,66,0.00,,,0.00,meteohub,2013-03-09 01:16:00,
2013-03-08 20:21:00,36.1,25.5,-100.00,ENE,75,4.0,13.0,65,0.00,,,0.00,meteohub,2013-03-09 01:21:00,
2013-03-08 20:26:00,36.7,26.8,-100.00,NNE,23,7.0,12.0,67,0.00,,,0.00,meteohub,2013-03-09 01:26:00,
2013-03-08 20:31:00,35.4,25.2,-100.00,NNE,32,6.0,12.0,66,0.00,,,0.00,meteohub,2013-03-09 01:31:00,
2013-03-08 20:36:00,35.2,25.0,-100.00,NE,36,6.0,11.0,66,0.00,,,0.00,meteohub,2013-03-09 01:36:00,
2013-03-08 20:41:00,35.6,24.3,-100.00,NE,46,6.0,11.0,63,0.00,,,0.00,meteohub,2013-03-09 01:41:00,
2013-03-08 20:46:00,36.9,25.5,-100.00,NNE,23,3.0,11.0,63,0.00,,,0.00,meteohub,2013-03-09 01:46:00,
2013-03-08 20:52:00,36.3,24.6,-100.00,NE,43,6.0,13.0,62,0.00,,,0.00,meteohub,2013-03-09 01:52:00,
2013-03-08 20:57:00,35.6,23.9,-100.00,North,7,5.0,13.0,62,0.00,,,0.00,meteohub,2013-03-09 01:57:00,
2013-03-08 21:02:00,36.7,24.4,-100.00,ENE,63,3.0,15.0,61,0.00,,,0.00,meteohub,2013-03-09 02:02:00,
2013-03-08 21:07:00,36.3,23.7,-100.00,ENE,61,6.0,15.0,60,0.00,,,0.00,meteohub,2013-03-09 02:07:00,
2013-03-08 21:12:00,36.9,24.3,-100.00,North,8,4.0,16.0,60,0.00,,,0.00,meteohub,2013-03-09 02:12:00,
2013-03-08 21:17:00,36.7,24.4,-100.00,NNE,23,9.0,16.0,61,0.00,,,0.00,meteohub,2013-03-09 02:17:00,
2013-03-08 21:22:00,36.1,24.1,-100.00,ENE,61,8.0,16.0,61,0.00,,,0.00,meteohub,2013-03-09 02:22:00,
2013-03-08 21:27:00,36.0,23.4,-100.00,NE,35,4.0,16.0,60,0.00,,,0.00,meteohub,2013-03-09 02:27:00,
2013-03-08 21:32:00,36.1,23.5,-100.00,NE,35,10.0,16.0,60,0.00,,,0.00,meteohub,2013-03-09 02:32:00,
2013-03-08 21:38:00,36.3,24.6,-100.00,NE,40,9.0,16.0,62,0.00,,,0.00,meteohub,2013-03-09 02:38:00,
2013-03-08 21:43:00,36.1,23.2,-100.00,North,358,7.0,15.0,59,0.00,,,0.00,meteohub,2013-03-09 02:43:00,
2013-03-08 21:48:00,36.1,24.1,-100.00,NE,43,9.0,18.0,61,0.00,,,0.00,meteohub,2013-03-09 02:48:00,
2013-03-08 21:53:00,36.7,23.7,-100.00,East,82,8.0,18.0,59,0.00,,,0.00,meteohub,2013-03-09 02:53:00,
2013-03-08 21:58:00,36.3,23.4,-100.00,NNE,21,8.0,19.0,59,0.00,,,0.00,meteohub,2013-03-09 02:58:00,
2013-03-08 22:03:00,36.3,23.4,-100.00,East,94,9.0,19.0,59,0.00,,,0.00,meteohub,2013-03-09 03:03:00,
2013-03-08 22:08:00,36.3,23.4,-100.00,NNE,16,6.0,19.0,59,0.00,,,0.00,meteohub,2013-03-09 03:08:00,
2013-03-08 22:13:00,35.1,22.1,-100.00,SE,125,2.0,13.0,59,0.00,,,0.00,meteohub,2013-03-09 03:13:00,
2013-03-08 22:18:00,36.1,23.5,-100.00,ENE,78,6.0,15.0,60,0.00,,,0.00,meteohub,2013-03-09 03:18:00,
2013-03-08 22:23:00,36.1,23.5,-100.00,East,84,8.0,15.0,60,0.00,,,0.00,meteohub,2013-03-09 03:23:00,
2013-03-08 22:28:00,36.9,23.9,-100.00,NNE,32,9.0,15.0,59,0.00,,,0.00,meteohub,2013-03-09 03:28:00,
2013-03-08 22:33:00,36.7,23.7,-100.00,NE,45,7.0,14.0,59,0.00,,,0.00,meteohub,2013-03-09 03:33:00,
2013-03-08 22:38:00,36.0,23.0,-100.00,NNE,28,6.0,13.0,59,0.00,,,0.00,meteohub,2013-03-09 03:38:00,
2013-03-08 22:43:00,36.0,22.6,-100.00,East,84,8.0,13.0,58,0.00,,,0.00,meteohub,2013-03-09 03:43:00,
2013-03-08 22:48:00,36.1,23.2,-100.00,NE,50,6.0,13.0,59,0.00,,,0.00,meteohub,2013-03-09 03:48:00,
2013-03-08 22:54:00,36.1,23.5,-100.00,NE,53,9.0,13.0,60,0.00,,,0.00,meteohub,2013-03-09 03:54:00,
2013-03-08 22:59:00,35.6,22.6,-100.00,NE,40,5.0,13.0,59,0.00,,,0.00,meteohub,2013-03-09 03:59:00,
2013-03-08 23:04:00,36.1,23.2,-100.00,NNE,22,4.0,13.0,59,0.00,,,0.00,meteohub,2013-03-09 04:04:00,
2013-03-08 23:09:00,35.6,23.5,-100.00,NNE,29,4.0,13.0,61,0.00,,,0.00,meteohub,2013-03-09 04:09:00,
2013-03-08 23:14:00,36.0,23.4,-100.00,NNW,338,4.0,13.0,60,0.00,,,0.00,meteohub,2013-03-09 04:14:00,
2013-03-08 23:19:00,35.2,23.2,-100.00,NE,39,6.0,13.0,61,0.00,,,0.00,meteohub,2013-03-09 04:19:00,
2013-03-08 23:24:00,34.9,22.5,-100.00,NE,46,6.0,13.0,60,0.00,,,0.00,meteohub,2013-03-09 04:24:00,
2013-03-08 23:29:00,34.5,21.7,-100.00,NNE,33,9.0,12.0,59,0.00,,,0.00,meteohub,2013-03-09 04:29:00,
2013-03-08 23:34:00,35.6,23.0,-100.00,ENE,63,7.0,13.0,60,0.00,,,0.00,meteohub,2013-03-09 04:34:00,
2013-03-08 23:39:00,35.2,22.8,-100.00,NNE,16,6.0,13.0,60,0.00,,,0.00,meteohub,2013-03-09 04:39:00,
2013-03-08 23:44:00,34.3,21.9,-100.00,ENE,67,3.0,13.0,60,0.00,,,0.00,meteohub,2013-03-09 04:44:00,
2013-03-08 23:49:00,35.6,22.3,-100.00,NE,40,6.0,12.0,58,0.00,,,0.00,meteohub,2013-03-09 04:49:00,
2013-03-08 23:54:00,35.8,22.8,-100.00,NNE,22,8.0,13.0,59,0.00,,,0.00,meteohub,2013-03-09 04:54:00,
2013-03-08 23:59:00,36.0,23.0,-100.00,NNE,26,4.0,15.0,59,0.00,,,0.00,meteohub,2013-03-09 04:59:00,